sat.trackr.live / text

‹ back to catalog

JILIN GAOFEN OBJECT D

NORAD 68694 · 2026-080D

PAYLOAD ACTIVE UNKNOWN

§ Identity

Operator
Country
PRC
Launch date
2026-04-14
Launch site
JSC
Launch vehicle
Mass (kg)
RCS (m²)

External: N2YO · Heavens-Above · Gunter

§ Orbital elements

Epoch: 2026-09-20T03:56:58.972416Z

Period
95.44 min
Inclination
97.6587°
Eccentricity
0.0019397
Mean motion
15.08820761 rev/d
Perigee alt
526.4 km
Apogee alt
553.2 km
Semi-major
6,917.9 km
B*
2.3687e-4
RAAN
338.6079°
Arg perigee
99.9022°
Mean anomaly
260.4397°
Rev number
2,396

§ Raw data

JILIN GAOFEN OBJECT D1 68694U 26080D   26263.16457144  .00003677  00000+0  23687-3 0  99912 68694  97.6587 338.6079 0019397  99.9022 260.4397 15.08820761 23962

JSON: /api/v1/satellites/68694 · /tle

For live sub-satellite position, see the globe view (requires WebGL).

§ Visibility from observer

Set your observer location to see the next 7 days of passes ≥ 10°. The values pass through the URL so the page stays shareable.

No JS? Fill the form by hand. The geolocation button needs JavaScript.